Location: Eaton
(41.3139°N, 82.0207°W)
Time: 08:00:02
(UTC+00:00)

Cosmos 1891 Rocket - Visible Passes

Search period start: 28 October 2021 00:00
Search period end: 07 November 2021 00:00
Orbit: 933 x 1019 km, 82.9° (Epoch: 27 October)

Date Brightness Start Highest point End Pass type
(mag) Time Alt. Az. Time Alt. Az. Time Alt. Az.
30 Oct 7.4 11:17:33 10° NE 11:18:49 11° ENE 11:20:03 10° ENE visible
03 Nov 7.1 11:12:07 10° NNE 11:16:09 17° ENE 11:20:14 10° ESE visible
06 Nov 7.2 10:43:50 10° NNE 10:47:21 15° ENE 10:50:53 10° E visible
